Time,TemperatureF,DewpointF,PressureIn,WindDirection,WindDirectionDegrees,WindSpeedMPH,WindSpeedGustMPH,Humidity,HourlyPrecipIn,Conditions,Clouds,dailyrainin,SoftwareType,DateUTC
2013-08-28 00:11:00,72.3,70.0,29.86,ESE,123,0.0,-999.0,92,-99.99,,,0.00,weatherlink.com 1.10,2013-08-28 04:11:00,
2013-08-28 00:26:00,72.1,70.0,29.86,ESE,123,0.0,-999.0,92,-99.99,,,0.00,weatherlink.com 1.10,2013-08-28 04:26:00,
2013-08-28 00:41:00,72.0,70.0,29.85,ESE,123,0.0,-999.0,93,-99.99,,,0.00,weatherlink.com 1.10,2013-08-28 04:41:00,
2013-08-28 00:56:00,72.1,70.0,29.85,ESE,123,0.0,-999.0,94,-99.99,,,0.00,weatherlink.com 1.10,2013-08-28 04:56:00,
2013-08-28 01:11:00,71.8,70.0,29.84,ESE,123,0.0,-999.0,94,-99.99,,,0.00,weatherlink.com 1.10,2013-08-28 05:11:00,
2013-08-28 01:26:00,71.8,70.0,29.85,ESE,123,0.0,-999.0,94,-99.99,,,0.00,weatherlink.com 1.10,2013-08-28 05:26:00,
2013-08-28 01:41:00,71.6,70.0,29.84,ESE,123,0.0,-999.0,94,-99.99,,,0.00,weatherlink.com 1.10,2013-08-28 05:41:00,
2013-08-28 01:56:00,71.6,70.0,29.84,ESE,123,0.0,-999.0,94,-99.99,,,0.00,weatherlink.com 1.10,2013-08-28 05:56:00,
2013-08-28 02:11:00,71.5,70.0,29.84,ESE,123,0.0,-999.0,95,-99.99,,,0.00,weatherlink.com 1.10,2013-08-28 06:11:00,
2013-08-28 02:26:00,71.3,70.0,29.83,ESE,123,0.0,-999.0,95,-99.99,,,0.00,weatherlink.com 1.10,2013-08-28 06:26:00,
2013-08-28 02:41:00,71.3,70.0,29.83,ESE,123,0.0,-999.0,95,-99.99,,,0.00,weatherlink.com 1.10,2013-08-28 06:41:00,
2013-08-28 02:56:00,71.1,70.0,29.83,ESE,123,0.0,-999.0,95,-99.99,,,0.00,weatherlink.com 1.10,2013-08-28 06:56:00,
2013-08-28 03:11:00,70.9,70.0,29.83,ESE,123,0.0,-999.0,95,-99.99,,,0.00,weatherlink.com 1.10,2013-08-28 07:11:00,
2013-08-28 03:26:00,70.8,69.0,29.82,ESE,123,0.0,-999.0,95,-99.99,,,0.00,weatherlink.com 1.10,2013-08-28 07:26:00,
2013-08-28 03:41:00,70.6,69.0,29.82,ESE,123,0.0,-999.0,95,-99.99,,,0.00,weatherlink.com 1.10,2013-08-28 07:41:00,
2013-08-28 03:56:00,70.3,69.0,29.82,ESE,123,0.0,-999.0,95,-99.99,,,0.00,weatherlink.com 1.10,2013-08-28 07:56:00,
2013-08-28 04:11:00,70.1,69.0,29.81,ESE,123,0.0,-999.0,96,-99.99,,,0.00,weatherlink.com 1.10,2013-08-28 08:11:00,
2013-08-28 04:26:00,70.1,69.0,29.81,ESE,123,0.0,-999.0,96,-99.99,,,0.00,weatherlink.com 1.10,2013-08-28 08:26:00,
2013-08-28 04:41:00,70.1,69.0,29.80,ESE,123,0.0,-999.0,96,-99.99,,,0.00,weatherlink.com 1.10,2013-08-28 08:41:00,
2013-08-28 04:56:00,69.9,69.0,29.80,ESE,123,0.0,-999.0,96,-99.99,,,0.00,weatherlink.com 1.10,2013-08-28 08:56:00,
2013-08-28 05:11:00,69.9,69.0,29.81,ESE,123,0.0,-999.0,96,-99.99,,,0.00,weatherlink.com 1.10,2013-08-28 09:11:00,
2013-08-28 05:26:00,69.8,69.0,29.82,ESE,123,0.0,-999.0,96,-99.99,,,0.00,weatherlink.com 1.10,2013-08-28 09:26:00,
2013-08-28 05:41:00,69.6,69.0,29.82,ESE,123,0.0,-999.0,96,-99.99,,,0.00,weatherlink.com 1.10,2013-08-28 09:41:00,
2013-08-28 05:56:00,69.6,69.0,29.82,ESE,123,0.0,-999.0,96,-99.99,,,0.00,weatherlink.com 1.10,2013-08-28 09:56:00,
2013-08-28 06:11:00,69.4,68.0,29.82,ESE,123,0.0,-999.0,96,-99.99,,,0.00,weatherlink.com 1.10,2013-08-28 10:11:00,
2013-08-28 06:26:00,69.4,68.0,29.82,ESE,123,0.0,-999.0,96,-99.99,,,0.00,weatherlink.com 1.10,2013-08-28 10:26:00,
2013-08-28 06:41:00,69.6,69.0,29.83,ESE,123,0.0,-999.0,96,-99.99,,,0.00,weatherlink.com 1.10,2013-08-28 10:41:00,
2013-08-28 06:56:00,69.6,69.0,29.83,ESE,123,0.0,-999.0,97,-99.99,,,0.00,weatherlink.com 1.10,2013-08-28 10:56:00,
2013-08-28 07:11:00,69.8,69.0,29.83,ESE,123,0.0,-999.0,97,-99.99,,,0.00,weatherlink.com 1.10,2013-08-28 11:11:00,
2013-08-28 07:26:00,70.3,69.0,29.83,ESE,123,0.0,-999.0,97,-99.99,,,0.00,weatherlink.com 1.10,2013-08-28 11:26:00,
2013-08-28 07:41:00,70.9,70.0,29.84,SW,217,0.0,-999.0,97,-99.99,,,0.00,weatherlink.com 1.10,2013-08-28 11:41:00,
2013-08-28 07:56:00,71.3,70.0,29.84,SW,217,0.0,-999.0,97,-99.99,,,0.00,weatherlink.com 1.10,2013-08-28 11:56:00,
2013-08-28 08:11:00,72.0,71.0,29.85,SW,217,0.0,-999.0,97,-99.99,,,0.00,weatherlink.com 1.10,2013-08-28 12:11:00,
2013-08-28 08:26:00,72.7,72.0,29.85,SW,217,0.0,-999.0,97,-99.99,,,0.00,weatherlink.com 1.10,2013-08-28 12:26:00,
2013-08-28 08:41:00,72.8,72.0,29.84,SW,217,0.0,-999.0,96,-99.99,,,0.00,weatherlink.com 1.10,2013-08-28 12:41:00,
2013-08-28 08:56:00,73.3,72.0,29.84,SSW,209,0.0,-999.0,95,-99.99,,,0.00,weatherlink.com 1.10,2013-08-28 12:56:00,
2013-08-28 09:11:00,74.2,72.0,29.84,SSW,209,0.0,-999.0,94,-99.99,,,0.00,weatherlink.com 1.10,2013-08-28 13:11:00,
2013-08-28 09:26:00,75.1,72.0,29.84,SSW,209,0.0,-999.0,90,-99.99,,,0.00,weatherlink.com 1.10,2013-08-28 13:26:00,
2013-08-28 09:41:00,75.6,72.0,29.85,SSW,209,0.0,-999.0,89,-99.99,,,0.00,weatherlink.com 1.10,2013-08-28 13:41:00,
2013-08-28 09:56:00,76.1,73.0,29.85,SSW,209,0.0,-999.0,89,-99.99,,,0.00,weatherlink.com 1.10,2013-08-28 13:56:00,
2013-08-28 10:11:00,76.7,73.0,29.85,SSW,209,0.0,-999.0,87,-99.99,,,0.00,weatherlink.com 1.10,2013-08-28 14:11:00,
2013-08-28 10:26:00,77.6,73.0,29.86,SSW,209,0.0,-999.0,86,-99.99,,,0.00,weatherlink.com 1.10,2013-08-28 14:26:00,
2013-08-28 10:41:00,78.1,73.0,29.86,SSW,209,0.0,-999.0,83,-99.99,,,0.00,weatherlink.com 1.10,2013-08-28 14:41:00,
2013-08-28 10:56:00,78.6,73.0,29.86,SSW,209,0.0,-999.0,82,-99.99,,,0.00,weatherlink.com 1.10,2013-08-28 14:56:00,
2013-08-28 11:12:00,79.8,74.0,29.86,SSW,209,0.0,-999.0,81,-99.99,,,0.00,weatherlink.com 1.10,2013-08-28 15:12:00,
2013-08-28 11:27:00,80.1,73.0,29.87,SSE,147,0.0,-999.0,80,-99.99,,,0.00,weatherlink.com 1.10,2013-08-28 15:27:00,
2013-08-28 11:42:00,80.9,73.0,29.87,SSE,150,0.0,-999.0,77,-99.99,,,0.00,weatherlink.com 1.10,2013-08-28 15:42:00,
2013-08-28 11:57:00,81.2,74.0,29.86,SSE,150,0.0,-999.0,79,-99.99,,,0.00,weatherlink.com 1.10,2013-08-28 15:57:00,
2013-08-28 12:12:00,82.0,74.0,29.86,SSE,150,0.0,-999.0,77,-99.99,,,0.00,weatherlink.com 1.10,2013-08-28 16:12:00,
2013-08-28 12:27:00,82.4,74.0,29.86,SSE,150,0.0,-999.0,76,-99.99,,,0.00,weatherlink.com 1.10,2013-08-28 16:27:00,
2013-08-28 12:57:00,82.4,74.0,29.85,SSE,150,0.0,-999.0,76,-99.99,,,0.00,weatherlink.com 1.10,2013-08-28 16:57:00,
2013-08-28 13:13:00,82.6,76.0,29.85,SSE,150,0.0,-999.0,79,-99.99,,,0.00,weatherlink.com 1.10,2013-08-28 17:13:00,
2013-08-28 13:27:00,82.8,76.0,29.85,SSE,150,0.0,-999.0,79,-99.99,,,0.00,weatherlink.com 1.10,2013-08-28 17:27:00,
2013-08-28 13:42:00,81.4,75.0,29.85,SSE,150,0.0,-999.0,80,-99.99,,,0.00,weatherlink.com 1.10,2013-08-28 17:42:00,
2013-08-28 13:57:00,81.1,74.0,29.85,SSE,150,0.0,-999.0,80,-99.99,,,0.00,weatherlink.com 1.10,2013-08-28 17:57:00,
2013-08-28 14:12:00,80.9,75.0,29.84,SSE,151,0.0,-999.0,83,-99.99,,,0.00,weatherlink.com 1.10,2013-08-28 18:12:00,
2013-08-28 14:27:00,80.5,75.0,29.83,SSE,151,0.0,-999.0,84,-99.99,,,0.00,weatherlink.com 1.10,2013-08-28 18:27:00,
2013-08-28 14:42:00,80.3,74.0,29.83,SSE,151,0.0,-999.0,81,-99.99,,,0.00,weatherlink.com 1.10,2013-08-28 18:42:00,
2013-08-28 14:57:00,81.2,75.0,29.83,SSE,151,0.0,-999.0,80,-99.99,,,0.00,weatherlink.com 1.10,2013-08-28 18:57:00,
2013-08-28 15:12:00,81.1,74.0,29.82,SSE,151,0.0,-999.0,80,-99.99,,,0.00,weatherlink.com 1.10,2013-08-28 19:12:00,
2013-08-28 15:27:00,81.2,75.0,29.82,SSE,151,0.0,-999.0,81,-99.99,,,0.00,weatherlink.com 1.10,2013-08-28 19:27:00,
2013-08-28 15:42:00,81.2,75.0,29.82,SSE,151,0.0,-999.0,81,-99.99,,,0.00,weatherlink.com 1.10,2013-08-28 19:42:00,
2013-08-28 15:57:00,81.2,75.0,29.82,SSE,151,0.0,-999.0,80,-99.99,,,0.00,weatherlink.com 1.10,2013-08-28 19:57:00,
2013-08-28 16:12:00,81.4,76.0,29.81,SSE,151,0.0,-999.0,83,-99.99,,,0.00,weatherlink.com 1.10,2013-08-28 20:12:00,
2013-08-28 16:27:00,81.2,75.0,29.80,SSE,151,0.0,-999.0,82,-99.99,,,0.00,weatherlink.com 1.10,2013-08-28 20:27:00,
2013-08-28 16:42:00,80.7,75.0,29.80,SSE,151,0.0,-999.0,83,-99.99,,,0.00,weatherlink.com 1.10,2013-08-28 20:42:00,
2013-08-28 16:57:00,80.5,75.0,29.79,SSE,151,0.0,-999.0,84,-99.99,,,0.00,weatherlink.com 1.10,2013-08-28 20:57:00,
2013-08-28 17:12:00,80.3,76.0,29.79,SSE,151,0.0,-999.0,85,-99.99,,,0.00,weatherlink.com 1.10,2013-08-28 21:12:00,
2013-08-28 17:27:00,79.6,76.0,29.79,SSE,151,0.0,-999.0,87,-99.99,,,0.00,weatherlink.com 1.10,2013-08-28 21:27:00,
2013-08-28 17:42:00,79.2,75.0,29.79,SSE,151,0.0,-999.0,87,-99.99,,,0.00,weatherlink.com 1.10,2013-08-28 21:42:00,
2013-08-28 17:57:00,79.0,76.0,29.79,SSE,151,0.0,-999.0,89,-99.99,,,0.00,weatherlink.com 1.10,2013-08-28 21:57:00,
2013-08-28 18:27:00,78.6,76.0,29.79,SSE,151,0.0,-999.0,90,-99.99,,,0.00,weatherlink.com 1.10,2013-08-28 22:27:00,
2013-08-28 18:42:00,78.8,76.0,29.79,SSE,151,0.0,-999.0,90,-99.99,,,0.00,weatherlink.com 1.10,2013-08-28 22:42:00,
2013-08-28 18:57:00,79.0,76.0,29.78,SSE,151,0.0,-999.0,89,-99.99,,,0.00,weatherlink.com 1.10,2013-08-28 22:57:00,
2013-08-28 19:12:00,79.2,75.0,29.78,SSE,151,0.0,-999.0,88,-99.99,,,0.00,weatherlink.com 1.10,2013-08-28 23:12:00,
2013-08-28 19:27:00,79.4,76.0,29.78,SSE,151,0.0,-999.0,88,-99.99,,,0.00,weatherlink.com 1.10,2013-08-28 23:27:00,
2013-08-28 19:42:00,79.0,75.0,29.78,SSE,151,0.0,-999.0,88,-99.99,,,0.00,weatherlink.com 1.10,2013-08-28 23:42:00,
2013-08-28 19:57:00,78.5,75.0,29.77,SSE,151,0.0,-999.0,89,-99.99,,,0.00,weatherlink.com 1.10,2013-08-28 23:57:00,
2013-08-28 20:12:00,78.1,75.0,29.77,SSE,151,0.0,-999.0,89,-99.99,,,0.00,weatherlink.com 1.10,2013-08-29 00:12:00,
2013-08-28 20:27:00,77.6,75.0,29.77,SSE,151,0.0,-999.0,90,-99.99,,,0.00,weatherlink.com 1.10,2013-08-29 00:27:00,
2013-08-28 20:42:00,77.4,75.0,29.77,SSE,151,0.0,-999.0,91,-99.99,,,0.00,weatherlink.com 1.10,2013-08-29 00:42:00,
2013-08-28 20:57:00,77.0,74.0,29.77,SSE,151,0.0,-999.0,91,-99.99,,,0.00,weatherlink.com 1.10,2013-08-29 00:57:00,
2013-08-28 21:12:00,76.8,74.0,29.77,SSE,151,0.0,-999.0,91,-99.99,,,0.00,weatherlink.com 1.10,2013-08-29 01:12:00,
2013-08-28 21:27:00,76.7,74.0,29.77,SSE,151,0.0,-999.0,91,-99.99,,,0.00,weatherlink.com 1.10,2013-08-29 01:27:00,
2013-08-28 21:42:00,76.5,74.0,29.77,SSE,151,0.0,-999.0,91,-99.99,,,0.00,weatherlink.com 1.10,2013-08-29 01:42:00,
2013-08-28 21:57:00,76.7,74.0,29.77,SW,227,0.0,-999.0,90,-99.99,,,0.00,weatherlink.com 1.10,2013-08-29 01:57:00,
2013-08-28 22:12:00,76.8,73.0,29.77,SSE,168,0.0,-999.0,89,-99.99,,,0.00,weatherlink.com 1.10,2013-08-29 02:12:00,
2013-08-28 22:27:00,77.2,74.0,29.77,SSE,160,2.0,-999.0,88,-99.99,,,0.00,weatherlink.com 1.10,2013-08-29 02:27:00,
2013-08-28 22:42:00,77.4,73.0,29.76,SE,145,0.0,-999.0,87,-99.99,,,0.00,weatherlink.com 1.10,2013-08-29 02:42:00,
2013-08-28 22:57:00,77.7,73.0,29.75,SE,144,0.0,-999.0,85,-99.99,,,0.00,weatherlink.com 1.10,2013-08-29 02:57:00,
2013-08-28 23:12:00,77.7,73.0,29.76,SE,137,0.0,-999.0,85,-99.99,,,0.00,weatherlink.com 1.10,2013-08-29 03:12:00,
2013-08-28 23:28:00,77.9,73.0,29.75,SSE,150,0.0,-999.0,85,-99.99,,,0.00,weatherlink.com 1.10,2013-08-29 03:28:00,
2013-08-28 23:42:00,77.9,73.0,29.74,SSE,154,0.0,-999.0,84,-99.99,,,0.00,weatherlink.com 1.10,2013-08-29 03:42:00,
2013-08-28 23:57:00,78.1,73.0,29.74,SSE,155,0.0,-999.0,84,-99.99,,,0.00,weatherlink.com 1.10,2013-08-29 03:57:00,